User: anonymous   Login
Location: Unspecified
(0.0000°N, 0.0000°E)
Time: 08:55:47
(UTC+00:00)
Language:

USA 32 - Orbit

View from above orbital plane
View from above orbital plane
View from above satellite
View from above satellite

Ground track
Ground track

The orbit data is extracted from the following two-line orbital elements,

1 19460U 88078A   17225.05314895 0.00000025  00000-0  90729-5 0    05
2 19460  84.9882 188.9972 0001000  47.8323 312.1675 14.33421847    05
Epoch (UTC): 13 August 2017 01:16:32
Eccentricity: 0.0001000
inclination: 84.9882°
perigee height: 779 km
apogee height: 781 km
right ascension of ascending node: 188.9972°
argument of perigee: 47.8323°
revolutions per day: 14.33421847
mean anomaly at epoch: 312.1675°
orbit number at epoch: 0

The dashed part of the orbit path shows where the satellite is in the earth's shadow,  

DLR